Simultaneous Nadir Overpasses (SNOs) Predictions

Prediction of SNOs between GOES-16 and NOAA-20 Satellite Orbit:

Table of predicted SNOs for the next 14.0 days since TLE Epoch: 9/3/2022
Index Date Time (GOES-16) GOES-16 Lat,Lon NOAA-20 Lat,Lon Distance(km) Time Diff (sec)
1 09/04/2022 06:32:11 0.04, -75.21 0.33, -76.43 139.43 80
2 09/05/2022 06:10:47 0.04, -75.21 -0.72, -71.91 376.75 80
3 09/06/2022 18:32:45 -0.03, -75.21 -0.46, -77.22 228.08 80
4 09/07/2022 18:16:40 -0.02, -75.22 0.54, -72.69 288.47 80
5 09/09/2022 06:38:30 0.01, -75.23 0.59, -77.97 311.38 80
6 09/10/2022 06:17:05 0.01, -75.24 -0.40, -73.44 205.91 80
7 09/11/2022 18:39:02 -0.01, -75.26 -0.77, -78.75 397.03 80
8 09/12/2022 18:22:58 -0.01, -75.28 0.23, -74.22 120.89 80
9 09/14/2022 06:44:46 0.01, -75.31 0.96, -79.49 477.04 80
10 09/15/2022 06:23:23 0.01, -75.33 -0.10, -74.97 41.17 80
